Location: Trois-Rivi�res
(46.3500°N, 72.5500°W)
Time: 02:33:57
(UTC-04:00)

Cosmos 1544 - Visible Passes

Search period start: 27 July 2016 00:00
Search period end: 06 August 2016 00:00
Orbit: 480 x 503 km, 82.5° (Epoch: 25 July)

Date Brightness Start Highest point End Pass type
(mag) Time Alt. Az. Time Alt. Az. Time Alt. Az.
27 Jul 3.1 04:32:15 10° S 04:35:56 89° NW 04:39:36 10° N visible
28 Jul 3.6 04:09:50 10° S 04:13:26 59° E 04:17:03 10° NNE visible
29 Jul 4.4 03:47:34 10° SSE 03:50:59 38° E 03:54:24 10° NNE visible
30 Jul 5.0 03:25:29 10° SSE 03:28:33 26° E 03:31:37 10° NNE visible
31 Jul 5.5 03:03:38 10° SE 03:06:09 18° E 03:08:40 10° NE visible
31 Jul 4.0 04:38:03 11° SW 04:41:08 31° WNW 04:44:26 10° N visible
01 Aug 5.8 02:42:13 10° ESE 02:43:46 12° E 02:45:20 10° ENE visible
01 Aug 3.5 04:16:03 17° SSW 04:18:33 46° WNW 04:22:05 10° N visible
02 Aug 3.0 03:54:01 25° SSW 03:56:00 72° W 03:59:39 10° N visible
03 Aug 3.1 03:31:59 33° S 03:33:29 74° E 03:37:08 10° NNE visible
04 Aug 3.8 03:09:54 35° SE 03:10:59 47° E 03:14:30 10° NNE visible
04 Aug 5.2 04:44:45 10° W 04:46:30 13° WNW 04:48:15 10° NW visible
05 Aug 4.4 02:47:49 29° ESE 02:48:31 31° E 02:51:46 10° NNE visible
05 Aug 4.8 04:22:20 15° W 04:23:49 18° WNW 04:26:25 10° NNW visible
